Regional Weather Roundup
Issued by NWS

Home | Current Version | Previous Version | Text Only | Print | Product List | Glossary Off
Versions: 1 2 3 4 5 6 7 8 9 10 11 12 13 14 15 16 17 18 19 20 21 22 23 24 25 26 27 28 29 30 31 32 33 34 35 36 37 38 39 40 41 42 43 44 45 46 47 48 49 50

000
ASUS43 KBIS 191210
RWRND

NORTH DAKOTA REGIONAL WEATHER ROUNDUP
NATIONAL WEATHER SERVICE BISMARCK ND
600 AM CST MON FEB 19 2018

NOTE: "FAIR" INDICATES FEW OR NO CLOUDS BELOW 12,000 FEET WITH NO
SIGNIFICANT WEATHER AND/OR OBSTRUCTIONS TO VISIBILITY.


NDZ001>003-009>011-017-191300-
NORTHWEST NORTH DAKOTA

CITY           SKY/WX    TMP DP  RH WIND       PRES   REMARKS
WILLISTON      MOCLDY   -12 -17  78 CALM      30.17F
6HR MIN TEMP: -18; 6HR MAX TEMP:  -6;

MINOT          CLOUDY    -7 -15  68 N3        30.18F
MINOT AFB        N/A    -12 -19  73 CALM      30.18F
$$

NDZ018>021-031>035-040>046-191300-
SOUTHWEST NORTH DAKOTA

CITY           SKY/WX    TMP DP  RH WIND       PRES   REMARKS
BISMARCK       MOCLDY     2  -7  66 N10       30.15F WCI -14
6HR MIN TEMP:   2; 6HR MAX TEMP:   8;

DICKINSON      MOCLDY    -2  -9  72 NE9       30.04F WCI -18
GARRISON         N/A     -5 -14  65 N6        30.14F WCI -18
6HR MIN TEMP:  -6; 6HR MAX TEMP:   2;

HETTINGER ARPT MOCLDY     0  -9  65 N8        30.06R WCI -14
$$

NDZ004>008-012>016-024-026-027-054-191300-
NORTHEAST NORTH DAKOTA

CITY           SKY/WX    TMP DP  RH WIND       PRES   REMARKS
GRAND FORKS    CLOUDY     1  -5  75 N16       30.22R WCI -19
GRND FRKS AFB  FAIR       0  -8  70 N14       30.22R WCI -19
DEVILS LAKE    FAIR      -5 -11  75 N12       30.21R WCI -23
$$

NDZ022-023-025-028>030-036>039-047>053-191300-
SOUTHEAST NORTH DAKOTA

CITY           SKY/WX    TMP DP  RH WIND       PRES   REMARKS
FARGO          CLOUDY     6  -1  73 N18       30.14S WCI -13
6HR MIN TEMP:   6; 6HR MAX TEMP:   9;

JAMESTOWN      MOCLDY     4  -4  69 N15       30.15R WCI -14
$$




USA.gov is the U.S. government's official web portal to all federal, state and local government web resources and services.